Year,Month,Day,Hour,Minute,Value (Times are PST for temperature in C)
2006,10,22,00,00,3.90
2006,10,22,00,01,3.90
2006,10,22,00,02,3.90
2006,10,22,00,03,3.90
2006,10,22,00,04,3.80
2006,10,22,00,05,3.80
2006,10,22,00,06,3.80
2006,10,22,00,07,3.70
2006,10,22,00,08,3.70
2006,10,22,00,09,3.70
2006,10,22,00,10,3.60
2006,10,22,00,11,3.60
2006,10,22,00,12,3.70
2006,10,22,00,13,3.70
2006,10,22,00,14,3.70
2006,10,22,00,15,3.80
2006,10,22,00,16,3.80
2006,10,22,00,17,3.80
2006,10,22,00,18,3.80
2006,10,22,00,19,3.80
2006,10,22,00,20,3.80
2006,10,22,00,21,3.80
2006,10,22,00,22,3.80
2006,10,22,00,23,3.80
2006,10,22,00,24,3.90
2006,10,22,00,25,3.90
2006,10,22,00,26,3.90
2006,10,22,00,27,3.80
2006,10,22,00,28,3.80
2006,10,22,00,29,3.80
2006,10,22,00,30,3.80
2006,10,22,00,31,3.80
2006,10,22,00,32,3.80
2006,10,22,00,33,3.80
2006,10,22,00,34,3.80
2006,10,22,00,35,3.80
2006,10,22,00,36,3.80
2006,10,22,00,37,3.80
2006,10,22,00,38,3.80
2006,10,22,00,39,3.70
2006,10,22,00,40,3.70
2006,10,22,00,41,3.70
2006,10,22,00,42,3.70
2006,10,22,00,43,3.70
2006,10,22,00,44,3.70
2006,10,22,00,45,3.70
2006,10,22,00,46,3.70
2006,10,22,00,47,3.70
2006,10,22,00,48,3.70
2006,10,22,00,49,3.70
2006,10,22,00,50,3.70
2006,10,22,00,51,3.70
2006,10,22,00,52,3.70
2006,10,22,00,53,3.70
2006,10,22,00,54,3.70
2006,10,22,00,55,3.70
2006,10,22,00,56,3.70
2006,10,22,00,57,3.70
2006,10,22,00,58,3.70
2006,10,22,00,59,3.60
2006,10,22,01,00,3.60
2006,10,22,01,01,3.60
2006,10,22,01,02,3.60
2006,10,22,01,03,3.60
2006,10,22,01,04,3.60
2006,10,22,01,05,3.60
2006,10,22,01,06,3.60
2006,10,22,01,07,3.60
2006,10,22,01,08,3.60
2006,10,22,01,09,3.60
2006,10,22,01,10,3.50
2006,10,22,01,11,3.50
2006,10,22,01,12,3.40
2006,10,22,01,13,3.40
2006,10,22,01,14,3.40
2006,10,22,01,15,3.40
2006,10,22,01,16,3.40
2006,10,22,01,17,3.30
2006,10,22,01,18,3.30
2006,10,22,01,19,3.30
2006,10,22,01,20,3.30
2006,10,22,01,21,3.20
2006,10,22,01,22,3.20
2006,10,22,01,23,3.20
2006,10,22,01,24,3.20
2006,10,22,01,25,3.20
2006,10,22,01,26,3.20
2006,10,22,01,27,3.20
2006,10,22,01,28,3.30
2006,10,22,01,29,3.30
2006,10,22,01,30,3.40
2006,10,22,01,31,3.40
2006,10,22,01,32,3.40
2006,10,22,01,33,3.40
2006,10,22,01,34,3.40
2006,10,22,01,35,3.40
2006,10,22,01,36,3.40
2006,10,22,01,37,3.50
2006,10,22,01,38,3.50
2006,10,22,01,39,3.50
2006,10,22,01,40,3.50
2006,10,22,01,41,3.50
2006,10,22,01,42,3.50
2006,10,22,01,43,3.50
2006,10,22,01,44,3.50
2006,10,22,01,45,3.40
2006,10,22,01,46,3.40
2006,10,22,01,47,3.40
2006,10,22,01,48,3.40
2006,10,22,01,49,3.40
2006,10,22,01,50,3.40
2006,10,22,01,51,3.40
2006,10,22,01,52,3.40
2006,10,22,01,53,3.40
2006,10,22,01,54,3.40
2006,10,22,01,55,3.40
2006,10,22,01,56,3.40
2006,10,22,01,57,3.40
2006,10,22,01,58,3.30
2006,10,22,01,59,3.30
2006,10,22,02,00,3.30
2006,10,22,02,01,3.30
2006,10,22,02,02,3.30
2006,10,22,02,03,3.30
2006,10,22,02,04,3.30
2006,10,22,02,05,3.30
2006,10,22,02,06,3.30
2006,10,22,02,07,3.30
2006,10,22,02,08,3.30
2006,10,22,02,09,3.30
2006,10,22,02,10,3.30
2006,10,22,02,11,3.30
2006,10,22,02,12,3.30
2006,10,22,02,13,3.30
2006,10,22,02,14,3.30
2006,10,22,02,15,3.30
2006,10,22,02,16,3.30
2006,10,22,02,17,3.30
2006,10,22,02,18,3.30
2006,10,22,02,19,3.30
2006,10,22,02,20,3.30
2006,10,22,02,21,3.30
2006,10,22,02,22,3.30
2006,10,22,02,23,3.30
2006,10,22,02,24,3.30
2006,10,22,02,25,3.30
2006,10,22,02,26,3.20
2006,10,22,02,27,3.20
2006,10,22,02,28,3.20
2006,10,22,02,29,3.20
2006,10,22,02,30,3.20
2006,10,22,02,31,3.20
2006,10,22,02,32,3.20
2006,10,22,02,33,3.20
2006,10,22,02,34,3.30
2006,10,22,02,35,3.30
2006,10,22,02,36,3.30
2006,10,22,02,37,3.30
2006,10,22,02,38,3.30
2006,10,22,02,39,3.30
2006,10,22,02,40,3.30
2006,10,22,02,41,3.30
2006,10,22,02,42,3.20
2006,10,22,02,43,3.20
2006,10,22,02,44,3.20
2006,10,22,02,45,3.20
2006,10,22,02,46,3.30
2006,10,22,02,47,3.30
2006,10,22,02,48,3.30
2006,10,22,02,49,3.30
2006,10,22,02,50,3.30
2006,10,22,02,51,3.30
2006,10,22,02,52,3.30
2006,10,22,02,53,3.30
2006,10,22,02,54,3.30
2006,10,22,02,55,3.30
2006,10,22,02,56,3.30
2006,10,22,02,57,3.30
2006,10,22,02,58,3.30
2006,10,22,02,59,3.30
2006,10,22,03,00,3.30
2006,10,22,03,01,3.20
2006,10,22,03,02,3.20
2006,10,22,03,03,3.20
2006,10,22,03,04,3.20
2006,10,22,03,05,3.20
2006,10,22,03,06,3.20
2006,10,22,03,07,3.20
2006,10,22,03,08,3.20
2006,10,22,03,09,3.20
2006,10,22,03,10,3.20
2006,10,22,03,11,3.20
2006,10,22,03,12,3.20
2006,10,22,03,13,3.20
2006,10,22,03,14,3.20
2006,10,22,03,15,3.20
2006,10,22,03,16,3.20
2006,10,22,03,17,3.10
2006,10,22,03,18,3.10
2006,10,22,03,19,3.10
2006,10,22,03,20,3.10
2006,10,22,03,21,3.10
2006,10,22,03,22,3.00
2006,10,22,03,23,3.00
2006,10,22,03,24,3.00
2006,10,22,03,25,2.90
2006,10,22,03,26,2.90
2006,10,22,03,27,2.80
2006,10,22,03,28,2.80
2006,10,22,03,29,2.80
2006,10,22,03,30,2.80
2006,10,22,03,31,2.80
2006,10,22,03,32,2.80
2006,10,22,03,33,2.80
2006,10,22,03,34,2.80
2006,10,22,03,35,2.80
2006,10,22,03,36,2.80
2006,10,22,03,37,2.80
2006,10,22,03,38,2.90
2006,10,22,03,39,2.90
2006,10,22,03,40,2.90
2006,10,22,03,41,2.90
2006,10,22,03,42,2.90
2006,10,22,03,43,2.90
2006,10,22,03,44,2.90
2006,10,22,03,45,2.90
2006,10,22,03,46,2.90
2006,10,22,03,47,2.80
2006,10,22,03,48,2.80
2006,10,22,03,49,2.80
2006,10,22,03,50,2.80
2006,10,22,03,51,2.90
2006,10,22,03,52,2.90
2006,10,22,03,53,2.90
2006,10,22,03,54,2.90
2006,10,22,03,55,2.90
2006,10,22,03,56,2.90
2006,10,22,03,57,2.90
2006,10,22,03,58,2.80
2006,10,22,03,59,2.80
2006,10,22,04,00,2.80
2006,10,22,04,01,2.80
2006,10,22,04,02,2.80
2006,10,22,04,03,2.80
2006,10,22,04,04,2.80
2006,10,22,04,05,2.80
2006,10,22,04,06,2.80
2006,10,22,04,07,2.80
2006,10,22,04,08,2.80
2006,10,22,04,09,2.90
2006,10,22,04,10,2.90
2006,10,22,04,11,2.90
2006,10,22,04,12,2.90
2006,10,22,04,13,2.90
2006,10,22,04,14,2.80
2006,10,22,04,15,2.80
2006,10,22,04,16,2.80
2006,10,22,04,17,2.80
2006,10,22,04,18,2.80
2006,10,22,04,19,2.80
2006,10,22,04,20,2.80
2006,10,22,04,21,2.80
2006,10,22,04,22,2.80
2006,10,22,04,23,2.80
2006,10,22,04,24,2.80
2006,10,22,04,25,2.80
2006,10,22,04,26,2.70
2006,10,22,04,27,2.70
2006,10,22,04,28,2.70
2006,10,22,04,29,2.70
2006,10,22,04,30,2.70
2006,10,22,04,31,2.70
2006,10,22,04,32,2.70
2006,10,22,04,33,2.70
2006,10,22,04,34,2.70
2006,10,22,04,35,2.70
2006,10,22,04,36,2.70
2006,10,22,04,37,2.70
2006,10,22,04,38,2.70
2006,10,22,04,39,2.70
2006,10,22,04,40,2.70
2006,10,22,04,41,2.60
2006,10,22,04,42,2.60
2006,10,22,04,43,2.60
2006,10,22,04,44,2.60
2006,10,22,04,45,2.60
2006,10,22,04,46,2.50
2006,10,22,04,47,2.50
2006,10,22,04,48,2.50
2006,10,22,04,49,2.50
2006,10,22,04,50,2.60
2006,10,22,04,51,2.60
2006,10,22,04,52,2.60
2006,10,22,04,53,2.60
2006,10,22,04,54,2.60
2006,10,22,04,55,2.60
2006,10,22,04,56,2.50
2006,10,22,04,57,2.60
2006,10,22,04,58,2.60
2006,10,22,04,59,2.60
2006,10,22,05,00,2.60
2006,10,22,05,01,2.60
2006,10,22,05,02,2.60
2006,10,22,05,03,2.60
2006,10,22,05,04,2.60
2006,10,22,05,05,2.60
2006,10,22,05,06,2.50
2006,10,22,05,07,2.50
2006,10,22,05,08,2.50
2006,10,22,05,09,2.50
2006,10,22,05,10,2.50
2006,10,22,05,11,2.50
2006,10,22,05,12,2.60
2006,10,22,05,13,2.60
2006,10,22,05,14,2.60
2006,10,22,05,15,2.60
2006,10,22,05,16,2.60
2006,10,22,05,17,2.60
2006,10,22,05,18,2.60
2006,10,22,05,19,2.60
2006,10,22,05,20,2.60
2006,10,22,05,21,2.60
2006,10,22,05,22,2.60
2006,10,22,05,23,2.60
2006,10,22,05,24,2.60
2006,10,22,05,25,2.60
2006,10,22,05,26,2.60
2006,10,22,05,27,2.60
2006,10,22,05,28,2.50
2006,10,22,05,29,2.50
2006,10,22,05,30,2.50
2006,10,22,05,31,2.50
2006,10,22,05,32,2.50
2006,10,22,05,33,2.50
2006,10,22,05,34,2.40
2006,10,22,05,35,2.40
2006,10,22,05,36,2.40
2006,10,22,05,37,2.40
2006,10,22,05,38,2.40
2006,10,22,05,39,2.40
2006,10,22,05,40,2.30
2006,10,22,05,41,2.30
2006,10,22,05,42,2.30
2006,10,22,05,43,2.30
2006,10,22,05,44,2.30
2006,10,22,05,45,2.30
2006,10,22,05,46,2.30
2006,10,22,05,47,2.30
2006,10,22,05,48,2.20
2006,10,22,05,49,2.20
2006,10,22,05,50,2.20
2006,10,22,05,51,2.20
2006,10,22,05,52,2.20
2006,10,22,05,53,2.20
2006,10,22,05,54,2.20
2006,10,22,05,55,2.20
2006,10,22,05,56,2.20
2006,10,22,05,57,2.20
2006,10,22,05,58,2.20
2006,10,22,05,59,2.20
2006,10,22,06,00,2.20
2006,10,22,06,01,2.20
2006,10,22,06,02,2.20
2006,10,22,06,03,2.20
2006,10,22,06,04,2.10
2006,10,22,06,05,2.10
2006,10,22,06,06,2.10
2006,10,22,06,07,2.10
2006,10,22,06,08,2.10
2006,10,22,06,09,2.10
2006,10,22,06,10,2.10
2006,10,22,06,11,2.10
2006,10,22,06,12,2.10
2006,10,22,06,13,2.00
2006,10,22,06,14,2.00
2006,10,22,06,15,2.00
2006,10,22,06,16,2.10
2006,10,22,06,17,2.10
2006,10,22,06,18,2.10
2006,10,22,06,19,2.10
2006,10,22,06,20,2.10
2006,10,22,06,21,2.10
2006,10,22,06,22,2.10
2006,10,22,06,23,2.20
2006,10,22,06,24,2.20
2006,10,22,06,25,2.20
2006,10,22,06,26,2.20
2006,10,22,06,27,2.20
2006,10,22,06,28,2.20
2006,10,22,06,29,2.20
2006,10,22,06,30,2.20
2006,10,22,06,31,2.20
2006,10,22,06,32,2.10
2006,10,22,06,33,2.10
2006,10,22,06,34,2.10
2006,10,22,06,35,2.10
2006,10,22,06,36,2.20
2006,10,22,06,37,2.10
2006,10,22,06,38,2.20
2006,10,22,06,39,2.20
2006,10,22,06,40,2.20
2006,10,22,06,41,2.20
2006,10,22,06,42,2.10
2006,10,22,06,43,2.10
2006,10,22,06,44,2.10
2006,10,22,06,45,2.10
2006,10,22,06,46,2.10
2006,10,22,06,47,2.10
2006,10,22,06,48,2.00
2006,10,22,06,49,2.00
2006,10,22,06,50,2.00
2006,10,22,06,51,2.00
2006,10,22,06,52,1.90
2006,10,22,06,53,1.90
2006,10,22,06,54,1.90
2006,10,22,06,55,1.90
2006,10,22,06,56,1.80
2006,10,22,06,57,1.80
2006,10,22,06,58,1.80
2006,10,22,06,59,1.70
2006,10,22,07,00,1.60
2006,10,22,07,01,1.60
2006,10,22,07,02,1.60
2006,10,22,07,03,1.50
2006,10,22,07,04,1.50
2006,10,22,07,05,1.50
2006,10,22,07,06,1.50
2006,10,22,07,07,1.50
2006,10,22,07,08,1.60
2006,10,22,07,09,1.60
2006,10,22,07,10,1.50
2006,10,22,07,11,1.50
2006,10,22,07,12,1.50
2006,10,22,07,13,1.40
2006,10,22,07,14,1.40
2006,10,22,07,15,1.30
2006,10,22,07,16,1.30
2006,10,22,07,17,1.30
2006,10,22,07,18,1.30
2006,10,22,07,19,1.30
2006,10,22,07,20,1.40
2006,10,22,07,21,1.50
2006,10,22,07,22,1.60
2006,10,22,07,23,1.70
2006,10,22,07,24,1.70
2006,10,22,07,25,1.80
2006,10,22,07,26,1.80
2006,10,22,07,27,1.80
2006,10,22,07,28,1.80
2006,10,22,07,29,1.80
2006,10,22,07,30,1.80
2006,10,22,07,31,1.80
2006,10,22,07,32,1.80
2006,10,22,07,33,1.80
2006,10,22,07,34,1.70
2006,10,22,07,35,1.70
2006,10,22,07,36,1.70
2006,10,22,07,37,1.70
2006,10,22,07,38,1.70
2006,10,22,07,39,1.60
2006,10,22,07,40,1.60
2006,10,22,07,41,1.60
2006,10,22,07,42,1.60
2006,10,22,07,43,1.60
2006,10,22,07,44,1.60
2006,10,22,07,45,1.60
2006,10,22,07,46,1.60
2006,10,22,07,47,1.70
2006,10,22,07,48,1.70
2006,10,22,07,49,1.70
2006,10,22,07,50,1.70
2006,10,22,07,51,1.80
2006,10,22,07,52,1.90
2006,10,22,07,53,1.90
2006,10,22,07,54,2.00
2006,10,22,07,55,2.00
2006,10,22,07,56,2.00
2006,10,22,07,57,2.10
2006,10,22,07,58,2.10
2006,10,22,07,59,2.10
2006,10,22,08,00,2.10
2006,10,22,08,01,2.10
2006,10,22,08,02,2.10
2006,10,22,08,03,2.10
2006,10,22,08,04,2.10
2006,10,22,08,05,2.10
2006,10,22,08,06,2.10
2006,10,22,08,07,2.20
2006,10,22,08,08,2.20
2006,10,22,08,09,2.10
2006,10,22,08,10,2.10
2006,10,22,08,11,2.10
2006,10,22,08,12,2.10
2006,10,22,08,13,2.10
2006,10,22,08,14,2.10
2006,10,22,08,15,2.10
2006,10,22,08,16,2.10
2006,10,22,08,17,2.20
2006,10,22,08,18,2.20
2006,10,22,08,19,2.20
2006,10,22,08,20,2.20
2006,10,22,08,21,2.20
2006,10,22,08,22,2.20
2006,10,22,08,23,2.20
2006,10,22,08,24,2.20
2006,10,22,08,25,2.20
2006,10,22,08,26,2.20
2006,10,22,08,27,2.20
2006,10,22,08,28,2.20
2006,10,22,08,29,2.30
2006,10,22,08,30,2.30
2006,10,22,08,31,2.30
2006,10,22,08,32,2.30
2006,10,22,08,33,2.30
2006,10,22,08,34,2.30
2006,10,22,08,35,2.30
2006,10,22,08,36,2.30
2006,10,22,08,37,2.30
2006,10,22,08,38,2.30
2006,10,22,08,39,2.30
2006,10,22,08,40,2.30
2006,10,22,08,41,2.20
2006,10,22,08,42,2.30
2006,10,22,08,43,2.30
2006,10,22,08,44,2.30
2006,10,22,08,45,2.30
2006,10,22,08,46,2.30
2006,10,22,08,47,2.30
2006,10,22,08,48,2.30
2006,10,22,08,49,2.30
2006,10,22,08,50,2.30
2006,10,22,08,51,2.30
2006,10,22,08,52,2.30
2006,10,22,08,53,2.30
2006,10,22,08,54,2.30
2006,10,22,08,55,2.30
2006,10,22,08,56,2.30
2006,10,22,08,57,2.30
2006,10,22,08,58,2.30
2006,10,22,08,59,2.30
2006,10,22,09,00,2.30
2006,10,22,09,01,2.30
2006,10,22,09,02,2.30
2006,10,22,09,03,2.30
2006,10,22,09,04,2.30
2006,10,22,09,05,2.30
2006,10,22,09,06,2.30
2006,10,22,09,07,2.30
2006,10,22,09,08,2.30
2006,10,22,09,09,2.40
2006,10,22,09,10,2.40
2006,10,22,09,11,2.40
2006,10,22,09,12,2.50
2006,10,22,09,13,2.50
2006,10,22,09,14,2.60
2006,10,22,09,15,2.60
2006,10,22,09,16,2.60
2006,10,22,09,17,2.70
2006,10,22,09,18,2.70
2006,10,22,09,19,2.80
2006,10,22,09,20,2.80
2006,10,22,09,21,2.90
2006,10,22,09,22,2.90
2006,10,22,09,23,3.00
2006,10,22,09,24,3.10
2006,10,22,09,25,3.10
2006,10,22,09,26,3.20
2006,10,22,09,27,3.20
2006,10,22,09,28,3.30
2006,10,22,09,29,3.30
2006,10,22,09,30,3.40
2006,10,22,09,31,3.50
2006,10,22,09,32,3.50
2006,10,22,09,33,3.60
2006,10,22,09,34,3.60
2006,10,22,09,35,3.70
2006,10,22,09,36,3.70
2006,10,22,09,37,3.70
2006,10,22,09,38,3.80
2006,10,22,09,39,3.80
2006,10,22,09,40,3.80
2006,10,22,09,41,3.80
2006,10,22,09,42,3.90
2006,10,22,09,43,3.90
2006,10,22,09,44,3.90
2006,10,22,09,45,3.90
2006,10,22,09,46,4.00
2006,10,22,09,47,4.00
2006,10,22,09,48,4.00
2006,10,22,09,49,4.10
2006,10,22,09,50,4.10
2006,10,22,09,51,4.10
2006,10,22,09,52,4.10
2006,10,22,09,53,4.10
2006,10,22,09,54,4.10
2006,10,22,09,55,4.10
2006,10,22,09,56,4.10
2006,10,22,09,57,4.10
2006,10,22,09,58,4.10
2006,10,22,09,59,4.10
2006,10,22,10,00,4.10
2006,10,22,10,01,4.10
2006,10,22,10,02,4.10
2006,10,22,10,03,4.10
2006,10,22,10,04,4.10
2006,10,22,10,05,4.10
2006,10,22,10,06,4.10
2006,10,22,10,07,4.20
2006,10,22,10,08,4.20
2006,10,22,10,09,4.20
2006,10,22,10,10,4.30
2006,10,22,10,11,4.30
2006,10,22,10,12,4.30
2006,10,22,10,13,4.30
2006,10,22,10,14,4.30
2006,10,22,10,15,4.30
2006,10,22,10,16,4.30
2006,10,22,10,17,4.30
2006,10,22,10,18,4.30
2006,10,22,10,19,4.30
2006,10,22,10,20,4.30
2006,10,22,10,21,4.40
2006,10,22,10,22,4.40
2006,10,22,10,23,4.50
2006,10,22,10,24,4.50
2006,10,22,10,25,4.60
2006,10,22,10,26,4.60
2006,10,22,10,27,4.60
2006,10,22,10,28,4.70
2006,10,22,10,29,4.70
2006,10,22,10,30,4.70
2006,10,22,10,31,4.70
2006,10,22,10,32,4.70
2006,10,22,10,33,4.80
2006,10,22,10,34,4.80
2006,10,22,10,35,4.80
2006,10,22,10,36,4.80
2006,10,22,10,37,4.80
2006,10,22,10,38,4.80
2006,10,22,10,39,4.70
2006,10,22,10,40,4.70
2006,10,22,10,41,4.70
2006,10,22,10,42,4.70
2006,10,22,10,43,4.70
2006,10,22,10,44,4.80
2006,10,22,10,45,4.80
2006,10,22,10,46,4.80
2006,10,22,10,47,4.80
2006,10,22,10,48,4.90
2006,10,22,10,49,4.90
2006,10,22,10,50,4.90
2006,10,22,10,51,5.00
2006,10,22,10,52,5.00
2006,10,22,10,53,5.10
2006,10,22,10,54,5.10
2006,10,22,10,55,5.10
2006,10,22,10,56,5.10
2006,10,22,10,57,5.10
2006,10,22,10,58,5.10
2006,10,22,10,59,5.20
2006,10,22,11,00,5.20
2006,10,22,11,01,5.30
2006,10,22,11,02,5.30
2006,10,22,11,03,5.30
2006,10,22,11,04,5.30
2006,10,22,11,05,5.40
2006,10,22,11,06,5.40
2006,10,22,11,07,5.40
2006,10,22,11,08,5.40
2006,10,22,11,09,5.50
2006,10,22,11,10,5.50
2006,10,22,11,11,5.60
2006,10,22,11,12,5.60
2006,10,22,11,13,5.60
2006,10,22,11,14,5.60
2006,10,22,11,15,5.70
2006,10,22,11,16,5.70
2006,10,22,11,17,5.70
2006,10,22,11,18,5.70
2006,10,22,11,19,5.70
2006,10,22,11,20,5.70
2006,10,22,11,21,5.80
2006,10,22,11,22,5.80
2006,10,22,11,23,5.80
2006,10,22,11,24,5.80
2006,10,22,11,25,5.80
2006,10,22,11,26,5.80
2006,10,22,11,27,5.80
2006,10,22,11,28,5.80
2006,10,22,11,29,5.80
2006,10,22,11,30,5.90
2006,10,22,11,31,5.90
2006,10,22,11,32,5.90
2006,10,22,11,33,5.90
2006,10,22,11,34,5.90
2006,10,22,11,35,5.90
2006,10,22,11,36,6.00
2006,10,22,11,37,6.00
2006,10,22,11,38,6.10
2006,10,22,11,39,6.00
2006,10,22,11,40,6.10
2006,10,22,11,41,6.10
2006,10,22,11,42,6.10
2006,10,22,11,43,6.20
2006,10,22,11,44,6.20
2006,10,22,11,45,6.20
2006,10,22,11,46,6.30
2006,10,22,11,47,6.30
2006,10,22,11,48,6.20
2006,10,22,11,49,6.20
2006,10,22,11,50,6.20
2006,10,22,11,51,6.30
2006,10,22,11,52,6.20
2006,10,22,11,53,6.20
2006,10,22,11,54,6.20
2006,10,22,11,55,6.20
2006,10,22,11,56,6.20
2006,10,22,11,57,6.20
2006,10,22,11,58,6.10
2006,10,22,11,59,6.10
2006,10,22,12,00,6.10
2006,10,22,12,01,6.10
2006,10,22,12,02,6.10
2006,10,22,12,03,6.20
2006,10,22,12,04,6.20
2006,10,22,12,05,6.20
2006,10,22,12,06,6.30
2006,10,22,12,07,6.30
2006,10,22,12,08,6.30
2006,10,22,12,09,6.20
2006,10,22,12,10,6.20
2006,10,22,12,11,6.10
2006,10,22,12,12,6.10
2006,10,22,12,13,6.10
2006,10,22,12,14,6.10
2006,10,22,12,15,6.10
2006,10,22,12,16,6.10
2006,10,22,12,17,6.10
2006,10,22,12,18,6.20
2006,10,22,12,19,6.20
2006,10,22,12,20,6.20
2006,10,22,12,21,6.20
2006,10,22,12,22,6.20
2006,10,22,12,23,6.30
2006,10,22,12,24,6.30
2006,10,22,12,25,6.30
2006,10,22,12,26,6.30
2006,10,22,12,27,6.30
2006,10,22,12,28,6.40
2006,10,22,12,29,6.40
2006,10,22,12,30,6.40
2006,10,22,12,31,6.40
2006,10,22,12,32,6.40
2006,10,22,12,33,6.40
2006,10,22,12,34,6.30
2006,10,22,12,35,6.30
2006,10,22,12,36,6.40
2006,10,22,12,37,6.40
2006,10,22,12,38,6.40
2006,10,22,12,39,6.40
2006,10,22,12,40,6.30
2006,10,22,12,41,6.30
2006,10,22,12,42,6.30
2006,10,22,12,43,6.30
2006,10,22,12,44,6.30
2006,10,22,12,45,6.30
2006,10,22,12,46,6.30
2006,10,22,12,47,6.30
2006,10,22,12,48,6.30
2006,10,22,12,49,6.30
2006,10,22,12,50,6.30
2006,10,22,12,51,6.30
2006,10,22,12,52,6.40
2006,10,22,12,53,6.40
2006,10,22,12,54,6.40
2006,10,22,12,55,6.30
2006,10,22,12,56,6.30
2006,10,22,12,57,6.30
2006,10,22,12,58,6.40
2006,10,22,12,59,6.40
2006,10,22,13,00,6.40
2006,10,22,13,01,6.40
2006,10,22,13,02,6.50
2006,10,22,13,03,6.50
2006,10,22,13,04,6.50
2006,10,22,13,05,6.50
2006,10,22,13,06,6.50
2006,10,22,13,07,6.50
2006,10,22,13,08,6.50
2006,10,22,13,09,6.50
2006,10,22,13,10,6.50
2006,10,22,13,11,6.50
2006,10,22,13,12,6.50
2006,10,22,13,13,6.50
2006,10,22,13,14,6.50
2006,10,22,13,15,6.50
2006,10,22,13,16,6.60
2006,10,22,13,17,6.60
2006,10,22,13,18,6.60
2006,10,22,13,19,6.60
2006,10,22,13,20,6.60
2006,10,22,13,21,6.60
2006,10,22,13,22,6.50
2006,10,22,13,23,6.50
2006,10,22,13,24,6.40
2006,10,22,13,25,6.40
2006,10,22,13,26,6.40
2006,10,22,13,27,6.40
2006,10,22,13,28,6.40
2006,10,22,13,29,6.40
2006,10,22,13,30,6.30
2006,10,22,13,31,6.30
2006,10,22,13,32,6.30
2006,10,22,13,33,6.30
2006,10,22,13,34,6.30
2006,10,22,13,35,6.30
2006,10,22,13,36,6.30
2006,10,22,13,37,6.30
2006,10,22,13,38,6.30
2006,10,22,13,39,6.30
2006,10,22,13,40,6.30
2006,10,22,13,41,6.30
2006,10,22,13,42,6.30
2006,10,22,13,43,6.30
2006,10,22,13,44,6.30
2006,10,22,13,45,6.30
2006,10,22,13,46,6.20
2006,10,22,13,47,6.20
2006,10,22,13,48,6.20
2006,10,22,13,49,6.20
2006,10,22,13,50,6.20
2006,10,22,13,51,6.20
2006,10,22,13,52,6.20
2006,10,22,13,53,6.20
2006,10,22,13,54,6.30
2006,10,22,13,55,6.30
2006,10,22,13,56,6.30
2006,10,22,13,57,6.30
2006,10,22,13,58,6.30
2006,10,22,13,59,6.30
2006,10,22,14,00,6.30
2006,10,22,14,01,6.30
2006,10,22,14,02,6.30
2006,10,22,14,03,6.40
2006,10,22,14,04,6.40
2006,10,22,14,05,6.40
2006,10,22,14,06,6.40
2006,10,22,14,07,6.50
2006,10,22,14,08,6.50
2006,10,22,14,09,6.50
2006,10,22,14,10,6.50
2006,10,22,14,11,6.50
2006,10,22,14,12,6.50
2006,10,22,14,13,6.50
2006,10,22,14,14,6.60
2006,10,22,14,15,6.60
2006,10,22,14,16,6.60
2006,10,22,14,17,6.70
2006,10,22,14,18,6.70
2006,10,22,14,19,6.70
2006,10,22,14,20,6.70
2006,10,22,14,21,6.70
2006,10,22,14,22,6.70
2006,10,22,14,23,6.70
2006,10,22,14,24,6.70
2006,10,22,14,25,6.80
2006,10,22,14,26,6.80
2006,10,22,14,27,6.80
2006,10,22,14,28,6.80
2006,10,22,14,29,6.80
2006,10,22,14,30,6.80
2006,10,22,14,31,6.80
2006,10,22,14,32,6.80
2006,10,22,14,33,6.80
2006,10,22,14,34,6.80
2006,10,22,14,35,6.80
2006,10,22,14,36,6.80
2006,10,22,14,37,6.90
2006,10,22,14,38,6.90
2006,10,22,14,39,6.90
2006,10,22,14,40,7.00
2006,10,22,14,41,7.00
2006,10,22,14,42,7.00
2006,10,22,14,43,7.10
2006,10,22,14,44,7.10
2006,10,22,14,45,7.20
2006,10,22,14,46,7.20
2006,10,22,14,47,7.20
2006,10,22,14,48,7.20
2006,10,22,14,49,7.20
2006,10,22,14,50,7.20
2006,10,22,14,51,7.20
2006,10,22,14,52,7.20
2006,10,22,14,53,7.20
2006,10,22,14,54,7.30
2006,10,22,14,55,7.30
2006,10,22,14,56,7.30
2006,10,22,14,57,7.30
2006,10,22,14,58,7.30
2006,10,22,14,59,7.40
2006,10,22,15,00,7.40
2006,10,22,15,01,7.40
2006,10,22,15,02,7.40
2006,10,22,15,03,7.50
2006,10,22,15,04,7.50
2006,10,22,15,05,7.50
2006,10,22,15,06,7.60
2006,10,22,15,07,7.60
2006,10,22,15,08,7.60
2006,10,22,15,09,7.70
2006,10,22,15,10,7.70
2006,10,22,15,11,7.70
2006,10,22,15,12,7.70
2006,10,22,15,13,7.80
2006,10,22,15,14,7.80
2006,10,22,15,15,7.80
2006,10,22,15,16,7.80
2006,10,22,15,17,7.90
2006,10,22,15,18,7.90
2006,10,22,15,19,7.90
2006,10,22,15,20,7.90
2006,10,22,15,21,7.90
2006,10,22,15,22,8.00
2006,10,22,15,23,8.00
2006,10,22,15,24,8.00
2006,10,22,15,25,8.00
2006,10,22,15,26,8.10
2006,10,22,15,27,8.10
2006,10,22,15,28,8.10
2006,10,22,15,29,8.10
2006,10,22,15,30,8.10
2006,10,22,15,31,8.10
2006,10,22,15,32,8.20
2006,10,22,15,33,8.20
2006,10,22,15,34,8.20
2006,10,22,15,35,8.20
2006,10,22,15,36,8.20
2006,10,22,15,37,8.20
2006,10,22,15,38,8.20
2006,10,22,15,39,8.30
2006,10,22,15,40,8.30
2006,10,22,15,41,8.30
2006,10,22,15,42,8.30
2006,10,22,15,43,8.30
2006,10,22,15,44,8.30
2006,10,22,15,45,8.40
2006,10,22,15,46,8.40
2006,10,22,15,47,8.40
2006,10,22,15,48,8.40
2006,10,22,15,49,8.40
2006,10,22,15,50,8.50
2006,10,22,15,51,8.50
2006,10,22,15,52,8.50
2006,10,22,15,53,8.60
2006,10,22,15,54,8.60
2006,10,22,15,55,8.60
2006,10,22,15,56,8.60
2006,10,22,15,57,8.70
2006,10,22,15,58,8.70
2006,10,22,15,59,8.80
2006,10,22,16,00,8.80
2006,10,22,16,01,8.80
2006,10,22,16,02,8.80
2006,10,22,16,03,8.80
2006,10,22,16,04,8.80
2006,10,22,16,05,8.80
2006,10,22,16,06,8.80
2006,10,22,16,07,8.90
2006,10,22,16,08,8.90
2006,10,22,16,09,8.90
2006,10,22,16,10,8.90
2006,10,22,16,11,8.90
2006,10,22,16,12,8.90
2006,10,22,16,13,8.90
2006,10,22,16,14,8.80
2006,10,22,16,15,8.80
2006,10,22,16,16,8.80
2006,10,22,16,17,8.80
2006,10,22,16,18,8.80
2006,10,22,16,19,8.70
2006,10,22,16,20,8.70
2006,10,22,16,21,8.70
2006,10,22,16,22,8.70
2006,10,22,16,23,8.70
2006,10,22,16,24,8.70
2006,10,22,16,25,8.70
2006,10,22,16,26,8.70
2006,10,22,16,27,8.70
2006,10,22,16,28,8.70
2006,10,22,16,29,8.70
2006,10,22,16,30,8.70
2006,10,22,16,31,8.70
2006,10,22,16,32,8.80
2006,10,22,16,33,8.80
2006,10,22,16,34,8.80
2006,10,22,16,35,8.90
2006,10,22,16,36,8.90
2006,10,22,16,37,8.90
2006,10,22,16,38,8.90
2006,10,22,16,39,8.90
2006,10,22,16,40,8.90
2006,10,22,16,41,8.90
2006,10,22,16,42,8.90
2006,10,22,16,43,8.90
2006,10,22,16,44,8.90
2006,10,22,16,45,8.90
2006,10,22,16,46,8.90
2006,10,22,16,47,8.90
2006,10,22,16,48,8.90
2006,10,22,16,49,8.90
2006,10,22,16,50,8.90
2006,10,22,16,51,9.00
2006,10,22,16,52,9.10
2006,10,22,16,53,9.20
2006,10,22,16,54,9.20
2006,10,22,16,55,9.30
2006,10,22,16,56,9.30
2006,10,22,16,57,9.30
2006,10,22,16,58,9.30
2006,10,22,16,59,9.30
2006,10,22,17,00,9.30
2006,10,22,17,01,9.30
2006,10,22,17,02,9.30
2006,10,22,17,03,9.40
2006,10,22,17,04,9.40
2006,10,22,17,05,9.40
2006,10,22,17,06,9.30
2006,10,22,17,07,9.30
2006,10,22,17,08,9.30
2006,10,22,17,09,9.30
2006,10,22,17,10,9.30
2006,10,22,17,11,9.30
2006,10,22,17,12,9.30
2006,10,22,17,13,9.30
2006,10,22,17,14,9.30
2006,10,22,17,15,9.30
2006,10,22,17,16,9.30
2006,10,22,17,17,9.30
2006,10,22,17,18,9.30
2006,10,22,17,19,9.30
2006,10,22,17,20,9.30
2006,10,22,17,21,9.30
2006,10,22,17,22,9.30
2006,10,22,17,23,9.30
2006,10,22,17,24,9.30
2006,10,22,17,25,9.30
2006,10,22,17,26,9.30
2006,10,22,17,27,9.30
2006,10,22,17,28,9.30
2006,10,22,17,29,9.30
2006,10,22,17,30,9.30
2006,10,22,17,31,9.30
2006,10,22,17,32,9.30
2006,10,22,17,33,9.30
2006,10,22,17,34,9.30
2006,10,22,17,35,9.30
2006,10,22,17,36,9.30
2006,10,22,17,37,9.30
2006,10,22,17,38,9.30
2006,10,22,17,39,9.30
2006,10,22,17,40,9.30
2006,10,22,17,41,9.30
2006,10,22,17,42,9.30
2006,10,22,17,43,9.30
2006,10,22,17,44,9.30
2006,10,22,17,45,9.30
2006,10,22,17,46,9.30
2006,10,22,17,47,9.20
2006,10,22,17,48,9.20
2006,10,22,17,49,9.20
2006,10,22,17,50,9.20
2006,10,22,17,51,9.20
2006,10,22,17,52,9.20
2006,10,22,17,53,9.20
2006,10,22,17,54,9.20
2006,10,22,17,55,9.20
2006,10,22,17,56,9.10
2006,10,22,17,57,9.10
2006,10,22,17,58,9.10
2006,10,22,17,59,9.10
2006,10,22,18,00,9.10
2006,10,22,18,01,9.10
2006,10,22,18,02,9.10
2006,10,22,18,03,9.10
2006,10,22,18,04,9.10
2006,10,22,18,05,9.00
2006,10,22,18,06,9.00